,,PA_Meas_PMT16A,,PR_Meas_QMR101_102,,RH_Meas_QMH101,,SR_Meas_QMS101,,TA_Meas_QMH101,,GenWind,,GenWind,
time,status,PA,status,PR,status,RH,status,SR,status,TA,status,DirAvg,status,SpdAvg,
2014-09-11, 06:42:04,VALID,917.992,VALID,0,VALID,97.7474,VALID,55.762,VALID,17.6377,VALID,118,VALID,0,
2014-09-11, 06:43:04,VALID,918.025,VALID,0,VALID,97.7703,VALID,58.7703,VALID,17.6962,VALID,118,VALID,0,
2014-09-11, 06:44:04,VALID,918.066,VALID,0,VALID,97.7474,VALID,61.4563,VALID,17.756,VALID,118,VALID,0,
2014-09-11, 06:45:04,VALID,918.131,VALID,0,VALID,97.7398,VALID,64.4647,VALID,17.795,VALID,118,VALID,0,
2014-09-11, 06:46:04,VALID,918.155,VALID,0,VALID,97.7474,VALID,67.7954,VALID,17.834,VALID,140,VALID,0,
2014-09-11, 06:47:04,VALID,918.197,VALID,0,VALID,97.7551,VALID,71.9856,VALID,17.8326,VALID,147,VALID,0,
2014-09-11, 06:48:04,VALID,918.211,VALID,0,VALID,97.7474,VALID,75.6386,VALID,17.7936,VALID,155,VALID,0,
2014-09-11, 06:49:04,VALID,918.197,VALID,0,VALID,97.7474,VALID,77.5725,VALID,17.8521,VALID,153,VALID,0,
2014-09-11, 06:50:04,VALID,918.217,VALID,0,VALID,97.7093,VALID,81.1181,VALID,17.8716,VALID,137,VALID,0,
2014-09-11, 06:51:04,VALID,918.218,VALID,0,VALID,97.7474,VALID,84.1264,VALID,17.9301,VALID,138,VALID,0,
2014-09-11, 06:52:04,VALID,918.225,VALID,0,VALID,97.7246,VALID,86.9199,VALID,17.9691,VALID,137,VALID,0,
2014-09-11, 06:53:04,VALID,918.199,VALID,0,VALID,97.7169,VALID,91.325,VALID,18.008,VALID,137,VALID,0,
2014-09-11, 06:54:04,VALID,918.215,VALID,0,VALID,97.7093,VALID,94.978,VALID,18.086,VALID,137,VALID,0,
2014-09-11, 06:55:04,VALID,918.233,VALID,0,VALID,97.6865,VALID,98.3087,VALID,18.1055,VALID,137,VALID,0,
2014-09-11, 06:56:04,VALID,918.234,VALID,0,VALID,97.6865,VALID,101.424,VALID,18.164,VALID,137,VALID,0,
2014-09-11, 06:57:04,VALID,918.213,VALID,0,VALID,97.6712,VALID,102.606,VALID,18.2615,VALID,137,VALID,0,
2014-09-11, 06:58:04,VALID,918.226,VALID,0,VALID,97.6788,VALID,104.433,VALID,18.2601,VALID,137,VALID,0,
2014-09-11, 06:59:04,VALID,918.214,VALID,0,VALID,97.6712,VALID,108.301,VALID,18.3394,VALID,137,VALID,0,
2014-09-11, 07:00:04,VALID,918.227,VALID,0,VALID,97.6636,VALID,109.053,VALID,18.3784,VALID,137,VALID,0,
2014-09-11, 07:01:04,VALID,918.271,VALID,0,VALID,97.6712,VALID,107.871,VALID,18.4174,VALID,117,VALID,0,
2014-09-11, 07:02:04,VALID,918.28,VALID,0,VALID,97.6255,VALID,104.755,VALID,18.5149,VALID,117,VALID,0,
2014-09-11, 07:03:04,VALID,918.354,VALID,0,VALID,97.6407,VALID,98.2012,VALID,18.5734,VALID,117,VALID,0,
2014-09-11, 07:04:04,VALID,918.371,VALID,0,VALID,97.6178,VALID,96.3747,VALID,18.6124,VALID,117,VALID,0,
2014-09-11, 07:05:04,VALID,918.422,VALID,0,VALID,97.5797,VALID,98.7384,VALID,18.7279,VALID,117,VALID,0,
2014-09-11, 07:06:04,VALID,918.445,VALID,0,VALID,97.5569,VALID,100.243,VALID,18.8268,VALID,117,VALID,0,
2014-09-11, 07:07:04,VALID,918.462,VALID,0,VALID,97.5492,VALID,104.755,VALID,18.7864,VALID,130,VALID,0,
2014-09-11, 07:08:04,VALID,918.479,VALID,0,VALID,97.5416,VALID,106.797,VALID,18.8463,VALID,136,VALID,0,
2014-09-11, 07:09:04,VALID,918.465,VALID,0,VALID,97.534,VALID,112.169,VALID,18.9048,VALID,136,VALID,0,
2014-09-11, 07:10:04,VALID,918.465,VALID,0,VALID,97.4882,VALID,119.904,VALID,18.9034,VALID,136,VALID,0,
2014-09-11, 07:11:04,VALID,918.459,VALID,0,VALID,97.4959,VALID,127.962,VALID,18.9814,VALID,136,VALID,0,
2014-09-11, 07:12:04,VALID,918.446,VALID,0,VALID,97.4501,VALID,134.194,VALID,19.0203,VALID,136,VALID,0,
2014-09-11, 07:13:04,VALID,918.436,VALID,0,VALID,97.4425,VALID,141.285,VALID,19.0593,VALID,132,VALID,0,
2014-09-11, 07:14:04,VALID,918.498,VALID,0,VALID,97.4349,VALID,140.64,VALID,19.1178,VALID,118,VALID,0,
2014-09-11, 07:15:04,VALID,918.543,VALID,0,VALID,97.3891,VALID,137.847,VALID,19.1178,VALID,117,VALID,0,
2014-09-11, 07:16:04,VALID,918.551,VALID,0,VALID,97.351,VALID,140.103,VALID,19.1958,VALID,117,VALID,0,
2014-09-11, 07:17:04,VALID,918.634,VALID,0,VALID,97.29,VALID,140.64,VALID,19.3518,VALID,117,VALID,0,
2014-09-11, 07:18:04,VALID,918.649,VALID,0,VALID,97.2443,VALID,140.963,VALID,19.4103,VALID,117,VALID,0,
2014-09-11, 07:19:04,VALID,918.673,VALID,0,VALID,97.1833,VALID,151.062,VALID,19.4883,VALID,117,VALID,0,
2014-09-11, 07:20:04,VALID,918.692,VALID,0,VALID,97.069,VALID,150.31,VALID,19.5663,VALID,117,VALID,0,
2014-09-11, 07:21:04,VALID,918.705,VALID,0,VALID,97.0003,VALID,155.145,VALID,19.7028,VALID,117,VALID,0,
2014-09-11, 07:22:04,VALID,918.7,VALID,0,VALID,96.886,VALID,136.128,VALID,19.8003,VALID,117,VALID,0,
2014-09-11, 07:23:04,VALID,918.725,VALID,0,VALID,96.7793,VALID,147.839,VALID,19.8978,VALID,139,VALID,0,
2014-09-11, 07:24:04,VALID,918.733,VALID,0,VALID,96.6573,VALID,157.938,VALID,19.9383,VALID,139,VALID,0,
2014-09-11, 07:25:04,VALID,918.749,VALID,0,VALID,96.4667,VALID,170.939,VALID,19.9383,VALID,139,VALID,0,
2014-09-11, 07:26:04,VALID,918.797,VALID,0,VALID,96.2533,VALID,172.55,VALID,19.9953,VALID,139,VALID,0,
2014-09-11, 07:27:04,VALID,918.818,VALID,0,VALID,95.9712,VALID,176.096,VALID,20.0343,VALID,139,VALID,0,
2014-09-11, 07:28:04,VALID,918.823,VALID,0,VALID,95.6205,VALID,176.956,VALID,20.1513,VALID,139,VALID,0,
2014-09-11, 07:29:04,VALID,918.874,VALID,0,VALID,95.2317,VALID,179.964,VALID,20.2879,VALID,139,VALID,0,
2014-09-11, 07:30:04,VALID,918.906,VALID,0,VALID,94.4084,VALID,140.103,VALID,20.3674,VALID,139,VALID,0,
2014-09-11, 07:31:04,VALID,918.924,VALID,0,VALID,92.8913,VALID,117.97,VALID,20.4049,VALID,139,VALID,0,
2014-09-11, 07:32:04,VALID,918.953,VALID,0,VALID,92.3577,VALID,118.508,VALID,20.4829,VALID,139,VALID,0,
2014-09-11, 07:33:04,VALID,918.973,VALID,0,VALID,91.8469,VALID,120.227,VALID,20.5414,VALID,139,VALID,0,
2014-09-11, 07:34:04,VALID,918.979,VALID,0,VALID,90.6882,VALID,119.689,VALID,20.5804,VALID,139,VALID,0,
2014-09-11, 07:35:04,VALID,918.988,VALID,0,VALID,89.9639,VALID,116.251,VALID,20.678,VALID,139,VALID,0,
2014-09-11, 07:36:04,VALID,919.003,VALID,0,VALID,89.7581,VALID,114.21,VALID,20.7365,VALID,139,VALID,0,
2014-09-11, 07:37:04,VALID,919.052,VALID,0,VALID,88.7671,VALID,114.747,VALID,20.639,VALID,139,VALID,0,
2014-09-11, 07:38:04,VALID,919.064,VALID,0,VALID,88.2792,VALID,116.574,VALID,20.5594,VALID,139,VALID,0,
2014-09-11, 07:39:04,VALID,919.115,VALID,0,VALID,86.3962,VALID,118.508,VALID,20.4829,VALID,139,VALID,0,
2014-09-11, 07:40:04,VALID,919.171,VALID,0,VALID,85.6262,VALID,120.334,VALID,20.4244,VALID,139,VALID,0,
2014-09-11, 07:41:04,VALID,919.227,VALID,0,VALID,85.1078,VALID,123.02,VALID,20.3838,VALID,139,VALID,0,
2014-09-11, 07:42:04,VALID,919.255,VALID,0,VALID,85.5347,VALID,126.566,VALID,20.4439,VALID,139,VALID,0,
2014-09-11, 07:43:04,VALID,919.258,VALID,0,VALID,86.8307,VALID,157.616,VALID,20.5414,VALID,139,VALID,0,
2014-09-11, 07:44:04,VALID,919.295,VALID,0,VALID,85.8168,VALID,135.698,VALID,20.5984,VALID,139,VALID,0,
2014-09-11, 07:45:04,VALID,919.3,VALID,0,VALID,86.1141,VALID,143.004,VALID,20.6975,VALID,139,VALID,0,
2014-09-11, 07:46:04,VALID,919.288,VALID,0,VALID,87.5854,VALID,138.921,VALID,20.795,VALID,139,VALID,0,
2014-09-11, 07:47:04,VALID,919.306,VALID,0,VALID,87.8751,VALID,139.566,VALID,20.834,VALID,139,VALID,0,
2014-09-11, 07:48:04,VALID,919.295,VALID,0,VALID,88.5536,VALID,146.657,VALID,20.9495,VALID,139,VALID,0,
2014-09-11, 07:49:04,VALID,919.309,VALID,0,VALID,87.5778,VALID,262.049,VALID,21.008,VALID,111,VALID,0,
2014-09-11, 07:50:04,VALID,919.325,VALID,0,VALID,85.672,VALID,170.079,VALID,21.0275,VALID,111,VALID,0,
2014-09-11, 07:51:04,VALID,919.335,VALID,0,VALID,84.376,VALID,150.525,VALID,21.0291,VALID,111,VALID,0,
2014-09-11, 07:52:04,VALID,919.337,VALID,0,VALID,84.6275,VALID,302.232,VALID,21.0275,VALID,112,VALID,0,
2014-09-11, 07:53:04,VALID,919.317,VALID,0,VALID,83.9109,VALID,262.694,VALID,21.1657,VALID,74,VALID,0,
2014-09-11, 07:54:04,VALID,919.353,VALID,0,VALID,84.254,VALID,136.558,VALID,21.2616,VALID,74,VALID,0,
2014-09-11, 07:55:04,VALID,919.365,VALID,0,VALID,84.6275,VALID,152.352,VALID,21.3006,VALID,73,VALID,0,
2014-09-11, 07:56:04,VALID,919.361,VALID,0,VALID,86.2513,VALID,161.806,VALID,21.2616,VALID,26,VALID,0,
2014-09-11, 07:57:04,VALID,919.347,VALID,0,VALID,87.8675,VALID,168.897,VALID,21.2421,VALID,27,VALID,0,
2014-09-11, 07:58:04,VALID,919.387,VALID,0,VALID,86.6782,VALID,156.649,VALID,21.2031,VALID,39,VALID,0,
2014-09-11, 07:59:04,VALID,919.407,VALID,0,VALID,85.893,VALID,149.343,VALID,21.125,VALID,39,VALID,0,
2014-09-11, 08:00:04,VALID,919.417,VALID,0,VALID,87.2652,VALID,153.856,VALID,21.0454,VALID,38,VALID,0,
2014-09-11, 08:01:04,VALID,919.452,VALID,0,VALID,87.654,VALID,181.038,VALID,21.0665,VALID,39,VALID,0,
2014-09-11, 08:02:04,VALID,919.439,VALID,0,VALID,87.4711,VALID,254.743,VALID,21.0844,VALID,39,VALID,0,
2014-09-11, 08:03:04,VALID,919.464,VALID,0,VALID,85.6796,VALID,328.448,VALID,21.1836,VALID,39,VALID,0,
2014-09-11, 08:04:04,VALID,919.478,VALID,0,VALID,84.2235,VALID,283.537,VALID,21.2616,VALID,39,VALID,0,
2014-09-11, 08:05:04,VALID,919.493,VALID,0,VALID,84.3379,VALID,251.52,VALID,21.3591,VALID,39,VALID,0,
2014-09-11, 08:06:04,VALID,919.483,VALID,0,VALID,84.0863,VALID,301.48,VALID,21.4957,VALID,40,VALID,0,
2014-09-11, 08:07:04,VALID,919.507,VALID,0,VALID,83.8195,VALID,301.48,VALID,21.6908,VALID,40,VALID,0,
2014-09-11, 08:08:04,VALID,919.495,VALID,0,VALID,82.554,VALID,242.602,VALID,21.8274,VALID,335,VALID,0,
2014-09-11, 08:09:04,VALID,919.539,VALID,0,VALID,84.0329,VALID,214.667,VALID,21.9444,VALID,335,VALID,0,
2014-09-11, 08:10:04,VALID,919.523,VALID,0,VALID,80.1069,VALID,194.898,VALID,21.8859,VALID,335,VALID,0,
2014-09-11, 08:11:04,VALID,919.507,VALID,0,VALID,77.8884,VALID,192.535,VALID,21.8664,VALID,338,VALID,0,
2014-09-11, 08:12:04,VALID,919.542,VALID,0,VALID,81.2732,VALID,198.981,VALID,21.9444,VALID,48,VALID,0,
2014-09-11, 08:13:04,VALID,919.547,VALID,0,VALID,83.8118,VALID,217.783,VALID,21.9249,VALID,55,VALID,0,
2014-09-11, 08:14:04,VALID,919.59,VALID,0,VALID,84.3302,VALID,286.008,VALID,21.8452,VALID,55,VALID,0,
2014-09-11, 08:15:04,VALID,919.623,VALID,0,VALID,84.9553,VALID,333.39,VALID,21.9054,VALID,55,VALID,0,
2014-09-11, 08:16:04,VALID,919.67,VALID,0,VALID,84.3226,VALID,304.381,VALID,21.9428,VALID,55,VALID,0,
2014-09-11, 08:17:04,VALID,919.712,VALID,0,VALID,83.6594,VALID,361.647,VALID,22.042,VALID,54,VALID,0,
2014-09-11, 08:18:04,VALID,919.709,VALID,0,VALID,83.2706,VALID,271.074,VALID,22.0403,VALID,306,VALID,0,
2014-09-11, 08:19:04,VALID,919.716,VALID,0,VALID,83.7661,VALID,267.851,VALID,22.0208,VALID,306,VALID,0,
2014-09-11, 08:20:04,VALID,919.689,VALID,0,VALID,83.606,VALID,266.776,VALID,22.003,VALID,306,VALID,0,
2014-09-11, 08:21:04,VALID,919.678,VALID,0,VALID,80.0306,VALID,359.176,VALID,22.0242,VALID,307,VALID,0,
2014-09-11, 08:22:04,VALID,919.682,VALID,0,VALID,79.4131,VALID,304.918,VALID,22.1396,VALID,310,VALID,0,
2014-09-11, 08:23:04,VALID,919.701,VALID,0,VALID,77.2862,VALID,259.9,VALID,22.2176,VALID,324,VALID,0,
2014-09-11, 08:24:04,VALID,919.698,VALID,0,VALID,78.018,VALID,245.073,VALID,22.2957,VALID,324,VALID,0,
2014-09-11, 08:25:04,VALID,919.742,VALID,0,VALID,76.0741,VALID,235.511,VALID,22.2176,VALID,305,VALID,0,
2014-09-11, 08:26:04,VALID,919.773,VALID,0,VALID,78.3687,VALID,224.445,VALID,22.1201,VALID,306,VALID,0,
2014-09-11, 08:27:04,VALID,919.78,VALID,0,VALID,79.7943,VALID,202.527,VALID,22.1396,VALID,305,VALID,0,
2014-09-11, 08:28:04,VALID,919.81,VALID,0,VALID,80.2593,VALID,199.733,VALID,22.1201,VALID,305,VALID,0,
2014-09-11, 08:29:04,VALID,919.84,VALID,0,VALID,80.5871,VALID,199.411,VALID,22.0794,VALID,306,VALID,0,
2014-09-11, 08:30:04,VALID,919.833,VALID,0,VALID,80.1297,VALID,195.221,VALID,22.1005,VALID,306,VALID,0,
2014-09-11, 08:31:04,VALID,919.818,VALID,0,VALID,79.6876,VALID,186.84,VALID,22.081,VALID,310,VALID,0,
2014-09-11, 08:32:04,VALID,919.822,VALID,0,VALID,80.7853,VALID,193.931,VALID,22.0208,VALID,310,VALID,0,
2014-09-11, 08:33:04,VALID,919.857,VALID,0,VALID,80.671,VALID,218.75,VALID,22.042,VALID,311,VALID,0,
2014-09-11, 08:34:04,VALID,919.841,VALID,0,VALID,79.962,VALID,261.404,VALID,21.964,VALID,310,VALID,0,
2014-09-11, 08:35:04,VALID,919.862,VALID,0,VALID,80.6786,VALID,263.338,VALID,21.9038,VALID,305,VALID,0,
2014-09-11, 08:36:04,VALID,919.889,VALID,0,VALID,81.0369,VALID,275.264,VALID,21.964,VALID,306,VALID,0,
2014-09-11, 08:37:04,VALID,919.903,VALID,0,VALID,81.2351,VALID,262.801,VALID,22.1005,VALID,306,VALID,0,
2014-09-11, 08:38:04,VALID,919.907,VALID,0,VALID,80.3203,VALID,253.024,VALID,22.2957,VALID,307,VALID,0,
2014-09-11, 08:39:04,VALID,919.938,VALID,0,VALID,79.8019,VALID,204.138,VALID,22.4518,VALID,317,VALID,0,
2014-09-11, 08:40:04,VALID,919.928,VALID,0,VALID,79.7486,VALID,208.973,VALID,22.5086,VALID,6,VALID,0.0789063,
2014-09-11, 08:41:04,VALID,919.936,VALID,0,VALID,80.3965,VALID,237.767,VALID,22.5477,VALID,10,VALID,0.0421875,
2014-09-11, 08:42:04,VALID,919.955,VALID,0,VALID,78.6584,VALID,240.991,VALID,22.4891,VALID,341,VALID,0,
2014-09-11, 08:43:04,VALID,919.962,VALID,0,VALID,80.1221,VALID,391.516,VALID,22.4111,VALID,351,VALID,0,
2014-09-11, 08:44:04,VALID,919.953,VALID,0,VALID,81.1436,VALID,377.656,VALID,22.4289,VALID,17,VALID,0,
2014-09-11, 08:45:04,VALID,919.946,VALID,0,VALID,82.3786,VALID,403.764,VALID,22.5672,VALID,12,VALID,0,
2014-09-11, 08:46:04,VALID,919.931,VALID,0,VALID,81.2199,VALID,325.869,VALID,22.7623,VALID,29,VALID,0,
2014-09-11, 08:47:04,VALID,919.916,VALID,0,VALID,80.1678,VALID,579.752,VALID,22.9965,VALID,357,VALID,0,
2014-09-11, 08:48:04,VALID,919.919,VALID,0,VALID,78.8719,VALID,566.43,VALID,23.0924,VALID,332,VALID,0,
2014-09-11, 08:49:04,VALID,919.912,VALID,0,VALID,79.3674,VALID,325.117,VALID,23.2307,VALID,10,VALID,0,
2014-09-11, 08:50:04,VALID,919.926,VALID,0,VALID,78.1781,VALID,536.883,VALID,23.307,VALID,339,VALID,0,
2014-09-11, 08:51:04,VALID,919.931,VALID,0,VALID,78.3611,VALID,468.336,VALID,23.4046,VALID,333,VALID,0,
2014-09-11, 08:52:04,VALID,919.912,VALID,0,VALID,78.5669,VALID,457.27,VALID,23.5235,VALID,15,VALID,0,
2014-09-11, 08:53:04,VALID,919.917,VALID,0,VALID,77.4768,VALID,509.379,VALID,23.5803,VALID,18,VALID,0.00820312,
2014-09-11, 08:54:04,VALID,919.93,VALID,0,VALID,78.5364,VALID,547.52,VALID,23.6584,VALID,18,VALID,0.237891,
2014-09-11, 08:55:04,VALID,919.917,VALID,0,VALID,76.4629,VALID,559.983,VALID,23.6974,VALID,353,VALID,0.828906,
2014-09-11, 08:56:04,VALID,919.92,VALID,0,VALID,79.6266,VALID,566.645,VALID,23.6797,VALID,10,VALID,0.204688,
2014-09-11, 08:57:04,VALID,919.94,VALID,0,VALID,77.37,VALID,563.529,VALID,23.7773,VALID,5,VALID,0.191406,
2014-09-11, 08:58:04,VALID,919.954,VALID,0,VALID,75.266,VALID,555.686,VALID,23.8944,VALID,351,VALID,0,
2014-09-11, 08:59:04,VALID,919.947,VALID,0,VALID,75.4489,VALID,561.38,VALID,23.8749,VALID,298,VALID,0,
2014-09-11, 09:00:04,VALID,919.924,VALID,0,VALID,75.7081,VALID,570.835,VALID,23.9902,VALID,34,VALID,0.00195313,
2014-09-11, 09:01:04,VALID,919.92,VALID,0,VALID,74.031,VALID,578.678,VALID,24.2458,VALID,334,VALID,0.586719,
2014-09-11, 09:02:04,VALID,919.947,VALID,0,VALID,72.5902,VALID,584.695,VALID,24.3825,VALID,9,VALID,0.392188,
2014-09-11, 09:03:04,VALID,919.931,VALID,0,VALID,73.627,VALID,570.62,VALID,24.4606,VALID,41,VALID,0.276172,
2014-09-11, 09:04:04,VALID,919.949,VALID,0,VALID,73.8023,VALID,566.967,VALID,24.4978,VALID,12,VALID,0.664063,
2014-09-11, 09:05:04,VALID,919.94,VALID,0,VALID,74.1453,VALID,553.214,VALID,24.5564,VALID,17,VALID,1.47383,
2014-09-11, 09:06:04,VALID,919.987,VALID,0,VALID,73.3525,VALID,525.28,VALID,24.5778,VALID,14,VALID,0,
2014-09-11, 09:07:04,VALID,919.979,VALID,0,VALID,72.5825,VALID,494.337,VALID,24.5954,VALID,325,VALID,1.00977,
2014-09-11, 09:08:04,VALID,919.983,VALID,0,VALID,74.3359,VALID,490.361,VALID,24.3221,VALID,306,VALID,0,
2014-09-11, 09:09:04,VALID,920.021,VALID,0,VALID,73.1009,VALID,497.238,VALID,24.2245,VALID,346,VALID,0.228516,
2014-09-11, 09:10:04,VALID,919.974,VALID,0,VALID,73.1619,VALID,488.965,VALID,24.1854,VALID,317,VALID,0.183984,
2014-09-11, 09:11:04,VALID,919.933,VALID,0,VALID,73.1391,VALID,501.428,VALID,24.086,VALID,334,VALID,0.462109,
2014-09-11, 09:12:04,VALID,919.943,VALID,0,VALID,73.2229,VALID,522.379,VALID,23.9103,VALID,303,VALID,0.151562,
2014-09-11, 09:13:04,VALID,919.921,VALID,0,VALID,74.1377,VALID,481.336,VALID,23.795,VALID,1,VALID,0.811719,
2014-09-11, 09:14:04,VALID,919.907,VALID,0,VALID,74.801,VALID,483.593,VALID,23.6974,VALID,47,VALID,1.05117,
2014-09-11, 09:15:04,VALID,919.901,VALID,0,VALID,74.6942,VALID,453.939,VALID,23.756,VALID,294,VALID,0.0578125,
2014-09-11, 09:16:04,VALID,919.916,VALID,0,VALID,75.388,VALID,506.048,VALID,23.8517,VALID,1,VALID,0.194531,
2014-09-11, 09:17:04,VALID,919.886,VALID,0,VALID,74.9001,VALID,527.429,VALID,24.0683,VALID,14,VALID,0,
2014-09-11, 09:18:04,VALID,919.89,VALID,0,VALID,73.3906,VALID,540.644,VALID,24.283,VALID,354,VALID,0.00234375,
2014-09-11, 09:19:04,VALID,919.878,VALID,0,VALID,71.6906,VALID,546.338,VALID,24.4197,VALID,318,VALID,0.25,
2014-09-11, 09:20:04,VALID,919.907,VALID,0,VALID,74.7323,VALID,550.206,VALID,24.3593,VALID,348,VALID,0.0316406,
2014-09-11, 09:21:04,VALID,919.922,VALID,0,VALID,70.2803,VALID,591.356,VALID,24.5564,VALID,346,VALID,0.670313,
2014-09-11, 09:22:04,VALID,919.926,VALID,0,VALID,68.8852,VALID,545.909,VALID,24.5155,VALID,345,VALID,0,
2014-09-11, 09:23:04,VALID,919.935,VALID,0,VALID,70.5471,VALID,607.58,VALID,24.535,VALID,11,VALID,0.0820313,
2014-09-11, 09:24:04,VALID,919.965,VALID,0,VALID,71.0274,VALID,625.952,VALID,24.6912,VALID,27,VALID,0.255859,
2014-09-11, 09:25:04,VALID,919.944,VALID,0,VALID,70.4175,VALID,595.331,VALID,24.6912,VALID,22,VALID,2.06914,
2014-09-11, 09:26:04,VALID,919.946,VALID,0,VALID,69.861,VALID,599.522,VALID,24.4959,VALID,14,VALID,0.388281,
2014-09-11, 09:27:04,VALID,919.919,VALID,0,VALID,70.9435,VALID,616.497,VALID,24.4587,VALID,17,VALID,0,
2014-09-11, 09:28:04,VALID,919.908,VALID,0,VALID,71.744,VALID,642.176,VALID,24.535,VALID,357,VALID,0.275,
2014-09-11, 09:29:04,VALID,919.931,VALID,0,VALID,72.0641,VALID,647.44,VALID,24.6326,VALID,326,VALID,0,
2014-09-11, 09:30:04,VALID,919.918,VALID,0,VALID,71.5763,VALID,653.242,VALID,24.7693,VALID,346,VALID,0.0046875,
2014-09-11, 09:31:04,VALID,919.961,VALID,0,VALID,69.1673,VALID,641.746,VALID,24.984,VALID,51,VALID,0.0148437,
2014-09-11, 09:32:04,VALID,919.955,VALID,0,VALID,72.552,VALID,623.803,VALID,25.0621,VALID,44,VALID,0.0710938,
2014-09-11, 09:33:04,VALID,919.974,VALID,0,VALID,67.917,VALID,632.721,VALID,25.1812,VALID,8,VALID,0.312891,
2014-09-11, 09:34:04,VALID,920.016,VALID,0,VALID,68.2753,VALID,633.903,VALID,25.2203,VALID,34,VALID,0.479688,
2014-09-11, 09:35:04,VALID,920.025,VALID,0,VALID,69.1444,VALID,628.638,VALID,25.396,VALID,311,VALID,0.0203125,
2014-09-11, 09:36:04,VALID,920.031,VALID,0,VALID,68.4811,VALID,574.166,VALID,25.3765,VALID,311,VALID,0,
2014-09-11, 09:37:04,VALID,920.016,VALID,0,VALID,66.8497,VALID,567.934,VALID,25.2593,VALID,311,VALID,0,
2014-09-11, 09:38:04,VALID,920.02,VALID,0,VALID,65.8968,VALID,607.58,VALID,25.2984,VALID,320,VALID,0,
2014-09-11, 09:39:04,VALID,920.048,VALID,0,VALID,67.1013,VALID,586.844,VALID,25.2593,VALID,310,VALID,0.0015625,
2014-09-11, 09:40:04,VALID,920.044,VALID,0,VALID,65.8892,VALID,577.604,VALID,25.437,VALID,19,VALID,0.976953,
2014-09-11, 09:41:04,VALID,920.037,VALID,0,VALID,65.6147,VALID,586.521,VALID,25.5698,VALID,17,VALID,0,
2014-09-11, 09:42:04,VALID,920.086,VALID,0,VALID,65.1421,VALID,572.876,VALID,25.7476,VALID,17,VALID,0.251953,
2014-09-11, 09:43:04,VALID,920.056,VALID,0,VALID,64.8143,VALID,621.869,VALID,25.9624,VALID,26,VALID,0.0902344,
2014-09-11, 09:44:04,VALID,920.083,VALID,0,VALID,64.334,VALID,604.679,VALID,26.1362,VALID,10,VALID,0.0328125,
2014-09-11, 09:45:04,VALID,920.065,VALID,0,VALID,62.7865,VALID,561.81,VALID,26.1362,VALID,352,VALID,0.760938,
2014-09-11, 09:46:04,VALID,920.044,VALID,0,VALID,64.2425,VALID,653.887,VALID,25.9995,VALID,22,VALID,1.98516,
2014-09-11, 09:47:04,VALID,920.039,VALID,0,VALID,65.0277,VALID,649.052,VALID,25.8433,VALID,14,VALID,1.49258,
2014-09-11, 09:48:04,VALID,920.053,VALID,0,VALID,66.278,VALID,677.309,VALID,25.648,VALID,24,VALID,0.181641,
2014-09-11, 09:49:04,VALID,920.02,VALID,0,VALID,65.1192,VALID,688.268,VALID,25.5894,VALID,42,VALID,0.0195313,
2014-09-11, 09:50:04,VALID,920.04,VALID,0,VALID,65.9273,VALID,700.624,VALID,25.6499,VALID,359,VALID,0.480078,
2014-09-11, 09:51:04,VALID,920.033,VALID,0,VALID,63.16,VALID,683.218,VALID,25.7456,VALID,354,VALID,0.521875,
2014-09-11, 09:52:04,VALID,920.034,VALID,0,VALID,64.5398,VALID,702.235,VALID,25.7066,VALID,337,VALID,0.330859,
2014-09-11, 09:53:04,VALID,920.047,VALID,0,VALID,64.6161,VALID,685.904,VALID,25.7847,VALID,13,VALID,0.767578,
2014-09-11, 09:54:04,VALID,920.046,VALID,0,VALID,64.6389,VALID,695.789,VALID,25.7847,VALID,24,VALID,0.389453,
2014-09-11, 09:55:04,VALID,920.061,VALID,0,VALID,64.4026,VALID,721.79,VALID,25.7651,VALID,359,VALID,0.696875,
2014-09-11, 09:56:04,VALID,920.075,VALID,0,VALID,63.2744,VALID,716.525,VALID,25.687,VALID,335,VALID,0.944141,
2014-09-11, 09:57:04,VALID,920.07,VALID,0,VALID,64.9668,VALID,716.847,VALID,25.648,VALID,347,VALID,0.0148437,
2014-09-11, 09:58:04,VALID,920.068,VALID,0,VALID,63.1981,VALID,722.542,VALID,25.6089,VALID,284,VALID,0,
2014-09-11, 09:59:04,VALID,920.035,VALID,0,VALID,63.1981,VALID,710.938,VALID,25.4331,VALID,257,VALID,0,
2014-09-11, 10:00:04,VALID,920.036,VALID,0,VALID,63.7851,VALID,710.293,VALID,25.355,VALID,257,VALID,0,
2014-09-11, 10:01:04,VALID,920.024,VALID,0,VALID,64.8829,VALID,681.929,VALID,25.3746,VALID,257,VALID,0,
2014-09-11, 10:02:04,VALID,920.023,VALID,0,VALID,65.9349,VALID,649.374,VALID,25.4527,VALID,263,VALID,0,
2014-09-11, 10:03:04,VALID,920.041,VALID,0,VALID,65.4547,VALID,704.169,VALID,25.687,VALID,350,VALID,0.0417969,
2014-09-11, 10:04:04,VALID,920.034,VALID,0,VALID,66.7125,VALID,706.211,VALID,25.8608,VALID,350,VALID,0,
2014-09-11, 10:05:04,VALID,920.015,VALID,0,VALID,63.7089,VALID,739.41,VALID,26.0757,VALID,350,VALID,0,
2014-09-11, 10:06:04,VALID,919.996,VALID,0,VALID,64.4026,VALID,754.667,VALID,26.1733,VALID,4,VALID,1.33047,
2014-09-11, 10:07:04,VALID,920.079,VALID,0,VALID,64.1434,VALID,754.774,VALID,26.1342,VALID,20,VALID,1.80703,
2014-09-11, 10:08:04,VALID,920.06,VALID,0,VALID,63.625,VALID,759.716,VALID,26.1147,VALID,345,VALID,0.283594,
2014-09-11, 10:09:04,VALID,920.058,VALID,0,VALID,64.0519,VALID,771.427,VALID,26.1342,VALID,345,VALID,0,
2014-09-11, 10:10:04,VALID,920.068,VALID,0,VALID,65.1268,VALID,785.502,VALID,26.3491,VALID,344,VALID,0,
2014-09-11, 10:11:04,VALID,920.079,VALID,0,VALID,63.1143,VALID,772.287,VALID,26.566,VALID,5,VALID,0.718359,
2014-09-11, 10:12:04,VALID,920.078,VALID,0,VALID,62.6187,VALID,676.342,VALID,26.5094,VALID,11,VALID,1.59219,
2014-09-11, 10:13:04,VALID,920.095,VALID,0,VALID,63.0685,VALID,779.056,VALID,26.4683,VALID,316,VALID,0,
2014-09-11, 10:14:04,VALID,920.07,VALID,0,VALID,64.456,VALID,741.881,VALID,26.3686,VALID,265,VALID,0.0105469,
2014-09-11, 10:15:04,VALID,920.082,VALID,0,VALID,63.7546,VALID,771.857,VALID,26.4683,VALID,267,VALID,0,
2014-09-11, 10:16:04,VALID,920.084,VALID,0,VALID,61.7573,VALID,812.04,VALID,26.4878,VALID,260,VALID,0.330078,
2014-09-11, 10:17:04,VALID,920.107,VALID,0,VALID,62.8246,VALID,755.526,VALID,26.4292,VALID,260,VALID,0.448828,
2014-09-11, 10:18:04,VALID,920.115,VALID,0,VALID,62.5273,VALID,677.416,VALID,26.3706,VALID,340,VALID,0.216797,
2014-09-11, 10:19:04,VALID,920.12,VALID,0,VALID,64.0596,VALID,599.844,VALID,26.5464,VALID,34,VALID,1.75195,
2014-09-11, 10:20:04,VALID,920.137,VALID,0,VALID,63.1752,VALID,601.885,VALID,26.6421,VALID,352,VALID,0,
2014-09-11, 10:21:04,VALID,920.141,VALID,0,VALID,61.3304,VALID,387.003,VALID,26.8981,VALID,352,VALID,0,
2014-09-11, 10:22:04,VALID,920.145,VALID,0,VALID,60.1564,VALID,284.397,VALID,27.113,VALID,352,VALID,0,
2014-09-11, 10:23:04,VALID,920.141,VALID,0,VALID,59.8743,VALID,543.437,VALID,26.9937,VALID,10,VALID,0,
2014-09-11, 10:24:04,VALID,920.132,VALID,0,VALID,61.9631,VALID,821.71,VALID,26.605,VALID,37,VALID,0.269922,
2014-09-11, 10:25:04,VALID,920.098,VALID,0,VALID,61.9631,VALID,820.85,VALID,26.4097,VALID,360,VALID,1.25586,